User: anonymous   Login
Location: Newark
(25.4297°S, 49.2719°W)
Time: 12:55:48
(UTC+00:00)
Language:

Transit 2A Rocket - Orbit

View from above orbital plane
View from above orbital plane
View from above satellite
View from above satellite

Ground track
Ground track

The orbit data is extracted from the following two-line orbital elements,

1    47U 60007C   19320.67394633 -.00000034 +00000-0 +17340-4 0  9997
2    47 066.6672 006.6074 0220428 100.0491 262.5561 14.42058437103854
Epoch (UTC): 16 November 2019 16:10:28
Eccentricity: 0.0220428
inclination: 66.6672°
perigee height: 594 km
apogee height: 909 km
right ascension of ascending node: 6.6074°
argument of perigee: 100.0491°
revolutions per day: 14.42058437
mean anomaly at epoch: 262.5561°
orbit number at epoch: 10385

The dashed part of the orbit path shows where the satellite is in the earth's shadow,  

DLR